Slayton, MN

3:40 AM CDT on June 27, 2017 (GMT -0500)
Slayton

Weather History for KDVP - August, 2013

Change the Weather History Date:

Tuesday, August 20, 2013

  Actual Average (KOTG) Record (KOTG)
Temperature  
Mean Temperature 76 °F -  
Max Temperature 87 °F 75 °F 95 °F (1972)
Min Temperature 64 °F 56 °F 40 °F (1985)
Cooling Degree Days 10    
Growing Degree Days 26 (Base 50)    
Moisture  
Dew Point 70 °F    
Average Humidity 83    
Maximum Humidity 99    
Minimum Humidity 57    
Precipitation  
Precipitation 0.00 in - - ()
Sea Level Pressure  
Sea Level Pressure 29.92 in    
Wind  
Wind Speed 6 mph (South)    
Max Wind Speed 9 mph    
Max Gust Speed -    
Visibility 7 miles    
Events      
Averages and records for this station are not official NWS values.
T = Trace of Precipitation, MM = Missing Value Source: NWS Daily Summary

Daily Weather History Graph

Daily Weather History Graph

Search for Another Location

Airport or City:

Trip Planner

Search our weather history database for the weather conditions in past years. The results will help you decide how hot, cold, wet, or windy it might be!

Date:

Astronomy

Aug. 20, 2013 Rise Set
Actual Time 6:33 AM CDT 8:18 PM CDT
Civil Twilight 6:02 AM CDT 8:49 PM CDT
Nautical Twilight 5:24 AM CDT 9:26 PM CDT
Astronomical Twilight 4:44 AM CDT 10:07 PM CDT
Moon 7:48 PM CDT (8/20) 6:05 AM CDT (8/20)
Length of Visible Light 14h 47m
Length of Day
13h 45m
Full, 100% of the Moon is Illuminated
Aug 20
Full
Aug 20
Full
Aug 28
Last Quarter
Sep 5
New
Sep 12
First Quarter

Hourly Weather History & Observations

Time (CDT) Temp. Heat Index Dew Point Humidity Pressure Visibility Wind Dir Wind Speed Gust Speed Precip Events Conditions
12:13 AM 72.9 °F - 67.5 °F 83% 29.94 in 10.0 mi South 8.1 mph - N/A   Clear
12:33 AM 72.0 °F - 67.6 °F 86% 29.94 in 10.0 mi South 5.8 mph - N/A   Clear
12:53 AM 70.5 °F - 67.6 °F 91% 29.94 in 7.0 mi South 6.9 mph - N/A   Clear
1:13 AM 70.3 °F - 68.0 °F 92% 29.94 in 7.0 mi South 6.9 mph - N/A   Clear
1:33 AM 69.8 °F - 67.6 °F 93% 29.94 in 7.0 mi South 6.9 mph - N/A   Clear
1:53 AM 69.8 °F - 67.8 °F 93% 29.93 in 7.0 mi South 6.9 mph - N/A   Clear
2:13 AM 69.3 °F - 67.5 °F 94% 29.93 in 7.0 mi South 6.9 mph - N/A   Clear
2:33 AM 69.3 °F - 67.5 °F 94% 29.92 in 7.0 mi South 6.9 mph - N/A   Mostly Cloudy
2:53 AM 68.9 °F - 67.3 °F 95% 29.92 in 5.0 mi South 6.9 mph - N/A   Scattered Clouds
3:13 AM 68.4 °F - 67.1 °F 96% 29.91 in 5.0 mi South 6.9 mph - N/A   Clear
3:33 AM 68.0 °F - 66.7 °F 96% 29.91 in 5.0 mi South 6.9 mph - N/A   Clear
3:53 AM 67.6 °F - 66.6 °F 96% 29.91 in 5.0 mi South 4.6 mph - N/A   Clear
4:13 AM 67.3 °F - 66.2 °F 96% 29.91 in 5.0 mi South 5.8 mph - N/A   Clear
4:33 AM 67.1 °F - 66.2 °F 97% 29.91 in 5.0 mi South 6.9 mph - N/A   Clear
4:53 AM 67.5 °F - 66.4 °F 96% 29.91 in 5.0 mi South 8.1 mph - N/A   Clear
5:13 AM 67.1 °F - 65.8 °F 96% 29.91 in 5.0 mi South 6.9 mph - N/A   Clear
5:33 AM 67.1 °F - 65.7 °F 95% 29.91 in 5.0 mi SSE 5.8 mph - N/A   Clear
5:53 AM 66.4 °F - 65.5 °F 97% 29.91 in 5.0 mi SSE 4.6 mph - N/A   Clear
6:14 AM 65.8 °F - 65.3 °F 98% 29.91 in 4.0 mi SSE 5.8 mph - N/A   Clear
6:34 AM 65.5 °F - 64.8 °F 98% 29.92 in 4.0 mi SSE 4.6 mph - N/A   Clear
6:52 AM 65.3 °F - 64.6 °F 98% 29.92 in 3.0 mi SSE 4.6 mph - N/A   Clear
7:13 AM 64.8 °F - 64.2 °F 98% 29.92 in 2.5 mi SE 3.5 mph - N/A   Clear
7:32 AM 64.9 °F - 64.6 °F 99% 29.92 in 1.5 mi SE 4.6 mph - N/A   Mist
7:53 AM 66.2 °F - 65.7 °F 98% 29.93 in 2.0 mi SSE 3.5 mph - N/A   Clear
8:14 AM 67.5 °F - 66.6 °F 97% 29.94 in 3.0 mi Calm Calm - N/A   Clear
8:33 AM 69.6 °F - 67.6 °F 93% 29.94 in 4.0 mi SSW 6.9 mph - N/A   Clear
8:53 AM 71.8 °F - 68.0 °F 88% 29.94 in 5.0 mi SSW 8.1 mph - N/A   Scattered Clouds
9:13 AM 71.8 °F - 68.4 °F 89% 29.94 in 5.0 mi South 5.8 mph - N/A   Scattered Clouds
9:33 AM 72.9 °F - 68.5 °F 86% 29.94 in 5.0 mi SSW 6.9 mph - N/A   Scattered Clouds
9:52 AM 74.1 °F - 68.9 °F 84% 29.94 in 7.0 mi SW 5.8 mph - N/A   Clear
10:13 AM 76.1 °F - 69.1 °F 79% 29.94 in 7.0 mi SW 5.8 mph - N/A   Clear
10:33 AM 76.3 °F - 69.8 °F 80% 29.94 in 7.0 mi South 4.6 mph - N/A   Clear
10:54 AM 78.1 °F - 70.5 °F 77% 29.94 in 7.0 mi South 3.5 mph - N/A   Clear
11:13 AM 78.8 °F - 70.5 °F 76% 29.94 in 10.0 mi Calm Calm - N/A   Clear
11:32 AM 79.3 °F - 71.4 °F 77% 29.93 in 10.0 mi SSE 3.5 mph - N/A   Clear
11:53 AM 80.4 °F 84.2 °F 71.4 °F 74% 29.94 in 10.0 mi SSE 5.8 mph - N/A   Clear
12:13 PM 81.0 °F 85.2 °F 71.8 °F 74% 29.93 in 10.0 mi SE 5.8 mph - N/A   Clear
12:33 PM 81.9 °F 86.6 °F 72.1 °F 72% 29.93 in 10.0 mi SE 8.1 mph - N/A   Clear
12:54 PM 82.6 °F 87.8 °F 72.3 °F 71% 29.92 in 10.0 mi South 6.9 mph - N/A   Clear
1:13 PM 82.9 °F 88.5 °F 72.5 °F 71% 29.92 in 10.0 mi South 6.9 mph - N/A   Clear
1:33 PM 83.3 °F 89.3 °F 73.0 °F 71% 29.91 in 7.0 mi SE 6.9 mph - N/A   Clear
1:53 PM 83.7 °F 90.1 °F 73.4 °F 71% 29.91 in 10.0 mi SSE 6.9 mph - N/A   Scattered Clouds
2:13 PM 84.4 °F 91.0 °F 73.2 °F 69% 29.91 in 10.0 mi South 8.1 mph - N/A   Clear
2:33 PM 84.6 °F 91.4 °F 73.2 °F 69% 29.91 in 10.0 mi SSE 9.2 mph - N/A   Scattered Clouds
2:53 PM 84.6 °F 90.7 °F 72.5 °F 67% 29.92 in 10.0 mi South 9.2 mph - N/A   Scattered Clouds
3:13 PM 85.3 °F 92.2 °F 73.0 °F 67% 29.91 in 10.0 mi SSW 9.2 mph - N/A   Scattered Clouds
3:33 PM 85.6 °F 91.1 °F 71.4 °F 62% 29.91 in 10.0 mi SSW 9.2 mph - N/A   Scattered Clouds
3:53 PM 85.5 °F 91.5 °F 72.0 °F 64% 29.91 in 10.0 mi South 5.8 mph - N/A   Scattered Clouds
4:13 PM 85.6 °F 90.8 °F 70.9 °F 61% 29.90 in 10.0 mi SSW 8.1 mph - N/A   Scattered Clouds
4:33 PM 86.0 °F 91.5 °F 71.2 °F 61% 29.90 in 10.0 mi South 8.1 mph - N/A   Clear
4:53 PM 86.0 °F 91.8 °F 71.4 °F 62% 29.90 in 10.0 mi South 8.1 mph - N/A   Clear
5:13 PM 86.0 °F 91.1 °F 70.7 °F 60% 29.90 in 10.0 mi South 8.1 mph - N/A   Clear
5:33 PM 87.1 °F 92.0 °F 70.3 °F 57% 29.90 in 10.0 mi South 6.9 mph - N/A   Clear
5:53 PM 84.7 °F 90.0 °F 71.2 °F 64% 29.90 in 10.0 mi South 6.9 mph - N/A   Clear
6:13 PM 84.4 °F 89.7 °F 71.6 °F 65% 29.90 in 10.0 mi SSE 5.8 mph - N/A   Clear
6:33 PM 83.3 °F 88.7 °F 72.1 °F 69% 29.89 in 10.0 mi South 9.2 mph - N/A   Clear
6:53 PM 83.5 °F 89.1 °F 72.1 °F 69% 29.90 in 10.0 mi South 5.8 mph - N/A   Clear
7:13 PM 82.8 °F 88.2 °F 72.5 °F 71% 29.90 in 10.0 mi South 5.8 mph - N/A   Clear
7:33 PM 81.0 °F 85.8 °F 73.2 °F 77% 29.90 in 10.0 mi South 5.8 mph - N/A   Clear
7:53 PM 79.2 °F - 73.0 °F 81% 29.90 in 7.0 mi SSE 4.6 mph - N/A   Clear
8:13 PM 76.6 °F - 73.2 °F 89% 29.90 in 7.0 mi SSE 4.6 mph - N/A   Clear
8:33 PM 75.2 °F - 72.7 °F 92% 29.90 in 7.0 mi SSE 5.8 mph - N/A   Clear
8:53 PM 74.7 °F - 72.5 °F 93% 29.91 in 7.0 mi SSE 5.8 mph - N/A   Clear
9:13 PM 74.3 °F - 72.5 °F 94% 29.91 in 5.0 mi South 6.9 mph - N/A   Clear
9:32 PM 73.9 °F - 72.3 °F 95% 29.91 in 5.0 mi SSE 6.9 mph - N/A   Clear
9:53 PM 73.4 °F - 72.0 °F 95% 29.91 in 5.0 mi South 6.9 mph - N/A   Clear
10:13 PM 74.3 °F - 72.0 °F 92% 29.92 in 7.0 mi South 5.8 mph - N/A   Clear
10:33 PM 73.9 °F - 72.0 °F 93% 29.91 in 7.0 mi South 6.9 mph - N/A   Clear
10:53 PM 74.3 °F - 72.0 °F 92% 29.91 in 7.0 mi South 6.9 mph - N/A   Clear
11:12 PM 73.9 °F - 71.8 °F 93% 29.91 in 7.0 mi South 5.8 mph - N/A   Clear
11:33 PM 74.3 °F - 72.0 °F 92% 29.91 in 7.0 mi South 6.9 mph - N/A   Clear
11:53 PM 74.5 °F - 71.8 °F 91% 29.91 in 7.0 mi South 9.2 mph - N/A   Clear